FW5120 Weather Reports


time (UTC)temp
F
wind
direction
speed
knots
gust
knots
rain 1hr
in
rain 24hr
in
rain mn
in
humidity
%
barometer
mb
20260507010010 53 257 0.0 0.0 0.00 0.00 0.00 92 1013.3
20260507004503 53 257 0.0 1.7 0.00 0.00 0.00 91 1013.3
20260507003001 53 257 0.9 2.6 0.00 0.00 0.00 91 1013.6
20260507001602 53 239 0.0 1.7 0.00 0.00 0.00 91 1013.7
20260507000105 53 332 0.0 1.7 0.00 0.00 0.00 91 1013.9
20260506234621 53 332 0.0 0.9 0.00 0.00 0.00 91 1013.7
20260506233104 54 332 0.0 1.7 0.00 0.00 0.00 90 1013.8
20260506231557 54 332 0.0 3.5 0.00 0.00 0.00 90 1013.9
20260506230054 54 165 1.7 2.6 0.00 0.00 0.00 90 1013.7
20260506224555 54 252 0.0 0.9 0.00 0.00 0.00 89 1013.9
20260506223057 55 252 0.0 1.7 0.00 0.00 0.00 88 1014.0
20260506221550 55 252 0.0 0.9 0.00 0.00 0.00 87 1013.9
20260506220050 56 252 0.9 1.7 0.00 0.00 0.00 85 1013.6
20260506214547 57 252 0.0 3.5 0.00 0.00 0.00 84 1013.5
20260506213044 57 261 0.0 3.5 0.00 0.00 0.00 83 1013.5
20260506211550 58 355 2.6 4.3 0.00 0.00 0.00 83 1013.2
20260506210043 58 240 1.7 7.0 0.00 0.00 0.00 85 1013.2
20260506204543 56 186 0.9 4.3 0.00 0.00 0.00 88 1013.0
20260506203042 56 188 1.7 2.6 0.00 0.00 0.00 87 1012.9
20260506201542 57 185 0.9 2.6 0.00 0.00 0.00 85 1012.8
20260506200041 58 182 0.0 2.6 0.00 0.00 0.00 84 1012.9
20260506194540 59 250 0.0 2.6 0.00 0.00 0.00 82 1013.0
20260506193039 61 276 1.7 4.3 0.00 0.00 0.00 80 1012.8
20260506191540 59 197 0.0 3.5 0.00 0.00 0.00 83 1012.6
20260506190038 59 236 0.0 2.6 0.00 0.00 0.00 85 1012.4
20260506184537 59 242 0.9 3.5 0.00 0.00 0.00 86 1012.1
20260506183037 60 257 0.0 0.9 0.00 0.00 0.00 84 1012.0
20260506181538 62 257 0.0 1.7 0.00 0.00 0.00 81 1012.0
20260506180036 63 257 0.0 1.7 0.00 0.00 0.00 79 1011.9
20260506174537 64 259 0.9 2.6 0.00 0.00 0.00 77 1011.9
20260506173035 65 263 0.9 3.5 0.00 0.00 0.00 74 1011.9
20260506171534 66 236 2.6 7.0 0.00 0.00 0.00 72 1011.9
20260506170033 67 258 3.5 6.1 0.00 0.00 0.00 70 1011.8
20260506164534 67 220 1.7 3.5 0.00 0.00 0.00 71 1011.7
20260506163034 67 255 0.9 5.2 0.00 0.00 0.00 71 1011.8
20260506161535 68 220 2.6 4.3 0.00 0.00 0.00 72 1011.8
20260506160030 68 209 1.7 5.2 0.00 0.00 0.00 71 1012.0
20260506154530 69 219 1.7 3.5 0.00 0.00 0.00 70 1012.2
20260506153040 68 227 2.6 6.1 0.00 0.00 0.00 68 1012.2
20260506151528 68 271 2.6 11.3 0.00 0.00 0.00 69 1012.2
20260506150028 69 207 1.7 8.7 0.00 0.00 0.00 68 1012.3
20260506144546 69 252 4.3 7.8 0.00 0.00 0.00 69 1012.2
20260506143026 71 49 0.9 10.4 0.00 0.00 0.00 68 1012.2
20260506141524 70 267 0.0 6.1 0.00 0.00 0.00 69 1012.5
20260506140035 67 236 1.7 7.0 0.00 0.00 0.00 71 1012.5
20260506134530 67 221 0.0 4.3 0.00 0.00 0.00 73 1012.4
20260506133022 67 232 1.7 4.3 0.00 0.00 0.00 72 1012.5
20260506131527 67 231 0.9 3.5 0.00 0.00 0.00 73 1012.6
20260506130018 67 257 2.6 6.1 0.00 0.00 0.00 72 1012.5
20260506124519 69 236 1.7 6.1 0.00 0.00 0.00 69 1012.5
20260506123028 69 256 1.7 5.2 0.00 0.00 0.00 68 1012.6
20260506121516 70 227 1.7 7.8 0.00 0.00 0.00 69 1012.6
20260506120024 69 240 1.7 7.8 0.00 0.00 0.00 69 1012.8
20260506114519 68 244 2.6 7.8 0.00 0.01 0.00 70 1012.9
20260506113012 67 244 3.5 7.8 0.00 0.01 0.00 71 1013.1
20260506111510 66 234 5.2 7.8 0.00 0.01 0.00 71 1013.3
20260506110010 65 248 2.6 6.1 0.00 0.01 0.00 72 1013.4
20260506104513 65 239 2.6 8.7 0.00 0.01 0.00 73 1013.5
20260506103010 66 288 3.5 11.3 0.00 0.01 0.00 70 1013.7
20260506101508 66 263 0.9 6.1 0.00 0.01 0.00 70 1013.9
20260506100016 64 258 1.7 7.0 0.00 0.01 0.00 71 1014.1
20260506094508 65 261 2.6 7.8 0.00 0.01 0.00 69 1014.2
20260506093007 65 246 2.6 6.1 0.00 0.01 0.00 71 1014.3
20260506091506 66 220 2.6 8.7 0.00 0.01 0.00 72 1014.3
20260506090005 67 256 1.7 7.8 0.00 0.01 0.00 68 1014.2
20260506084506 69 207 4.3 9.6 0.00 0.01 0.00 68 1013.9
20260506083006 70 257 5.2 8.7 0.00 0.01 0.00 66 1013.7
20260506081507 69 284 0.9 4.3 0.00 0.01 0.00 67 1013.4
20260506073058 69 268 0.0 4.3 0.00 0.01 0.00 67 1013.5
20260506071555 68 260 0.9 4.3 0.00 0.01 0.00 67 1013.7
20260506061548 65 82 0.0 2.6 0.00 0.01 0.00 73 1013.9
20260506044545 56 195 2.6 6.1 0.00 0.01 0.00 85 1013.9
20260506043031 55 242 0.0 0.9 0.00 0.01 0.00 86 1014.2
20260506041532 54 242 0.9 1.7 0.00 0.01 0.00 85 1014.2
20260506040029 55 242 0.9 2.6 0.00 0.01 0.00 83 1014.1
20260506034529 56 225 0.0 0.9 0.00 0.01 0.00 81 1014.0
20260506033030 57 225 0.0 1.7 0.00 0.01 0.00 80 1014.0
20260506031541 56 225 0.0 2.6 0.00 0.01 0.00 80 1014.2
20260506030031 57 225 0.9 2.6 0.00 0.01 0.00 80 1014.2
20260506024530 57 224 0.0 2.6 0.00 0.01 0.00 78 1014.2
20260506023026 57 244 0.9 2.6 0.00 0.01 0.00 78 1014.3
20260506021525 56 241 1.7 3.5 0.00 0.01 0.00 80 1014.2
20260506020025 57 254 0.0 3.5 0.00 0.01 0.00 77 1014.3
20260506014524 57 245 2.6 4.3 0.00 0.01 0.00 77 1014.2
20260506013023 57 252 2.6 5.2 0.00 0.01 0.00 77 1014.1
20260506011521 58 220 1.7 3.5 0.00 0.01 0.00 76 1014.2